Location: Dillon
(41.1766°N, 107.0923°W)
Time: 02:53:13
(UTC+00:00)

NOAA 19 - Visible Passes

Search period start: 26 June 2022 00:00
Search period end: 06 July 2022 00:00
Orbit: 840 x 861 km, 99.1° (Epoch: 25 June)

Date Brightness Start Highest point End Pass type
(mag) Time Alt. Az. Time Alt. Az. Time Alt. Az.
26 Jun 7.1 03:16:56 10° SSW 03:21:41 29° W 03:26:27 10° NW visible
01 Jul 7.9 04:01:14 10° WSW 04:03:23 12° W 04:05:33 10° WNW visible
02 Jul 7.7 03:48:02 10° SW 03:51:21 16° W 03:54:41 10° NW visible
03 Jul 7.6 03:35:17 10° SW 03:39:21 21° W 03:43:25 10° NW visible
04 Jul 7.3 03:22:48 10° SSW 03:27:21 26° W 03:31:57 10° NW visible
05 Jul 6.9 03:10:26 10° SSW 03:15:23 34° W 03:20:21 10° NNW visible
